Date,TemperatureHighF,TemperatureAvgF,TemperatureLowF,DewpointHighF,DewpointAvgF,DewpointLowF,HumidityHigh,HumidityAvg,HumidityLow,PressureMaxIn,PressureMinIn,WindSpeedMaxMPH,WindSpeedAvgMPH,GustSpeedMaxMPH,PrecipitationSumIn
2013-9-1,93,80,75,74,72,70,92,77,51,29.78,29.72,5,1,10,0.00
2013-9-2,91,81,72,76,73,67,93,77,59,29.72,29.63,4,1,8,1.45
2013-9-3,90,79,71,74,65,54,95,64,35,29.80,29.63,6,1,11,0.46
2013-9-4,91,76,66,59,56,49,72,51,30,29.91,29.80,6,2,10,0.00
2013-9-5,84,74,65,60,51,40,71,46,25,30.07,29.84,8,2,11,0.00
2013-9-6,80,66,57,48,43,40,58,44,25,30.17,30.05,6,2,9,0.00
2013-9-7,86,71,61,57,50,43,69,50,25,30.05,29.82,7,2,10,0.00
2013-9-8,87,74,64,63,54,43,69,51,31,30.00,29.74,7,2,11,0.00
2013-9-9,79,68,59,59,49,42,74,52,30,30.16,30.00,6,1,12,0.00
2013-9-10,96,80,68,73,68,60,81,67,47,30.08,29.97,9,3,12,0.00
2013-9-11,103,89,77,76,73,71,84,61,39,30.03,29.90,6,2,12,0.00
2013-9-12,94,82,71,74,70,67,92,70,49,29.90,29.60,10,2,12,1.15
2013-9-13,85,72,60,67,59,48,90,65,40,29.76,29.55,7,2,13,0.07
2013-9-14,72,61,55,48,46,44,69,59,42,30.04,29.77,6,2,11,0.00
2013-9-15,78,63,52,57,46,39,74,57,27,30.13,30.00,5,1,8,0.00
2013-9-16,78,66,59,58,53,47,79,64,41,30.15,29.95,5,2,11,0.04
2013-9-17,71,58,49,47,39,35,66,50,30,30.35,30.16,10,2,13,0.00
2013-9-18,77,63,53,52,44,38,73,53,26,30.27,30.11,6,1,10,0.00
2013-9-19,84,67,57,56,50,46,78,58,27,30.11,29.99,4,2,10,0.00
2013-9-20,87,70,61,60,57,55,82,65,36,30.01,29.92,7,1,10,0.00
2013-9-21,78,70,60,68,63,57,94,80,62,29.93,29.59,10,2,19,0.16
2013-9-22,73,64,56,67,51,41,94,65,37,29.83,29.57,7,2,14,1.03
2013-9-23,70,59,52,44,42,38,69,54,36,29.97,29.83,7,2,13,0.00
2013-9-24,80,62,48,44,42,40,76,52,26,29.97,29.79,5,1,9,0.00
2013-9-25,79,65,55,55,45,40,80,51,27,29.88,29.79,5,1,8,0.00
2013-9-26,77,64,58,57,55,52,85,74,47,30.02,29.86,6,1,9,0.00
2013-9-27,70,63,57,54,52,49,86,68,52,30.18,30.02,4,1,10,0.00
2013-9-28,76,65,57,54,52,50,80,64,41,30.24,30.15,5,1,9,0.00
2013-9-29,77,64,58,58,54,49,91,72,37,30.15,30.01,4,0,9,0.00
2013-9-30,78,66,57,57,53,49,89,67,39,30.00,29.89,4,1,7,0.00